ハートレー第2彗星

103P/Hartley 2 (2023)

English version
Home page
Updated on March 4, 2025

---------------------------------------------------------------------

・ プロフィール

・ 写真集

・ 軌道要素

Epoch 2025 May 5.0 TT = JDT 2460800.5
T 2023 Oct. 12.43880 TT                                 Pike
q   1.0651401            (2000.0)            P               Q
n   0.15211325     Peri.  181.32594     +0.75418732     -0.63918778
a   3.4755592      Node   219.75588     +0.60461813     +0.76534153
e   0.6935342      Incl.   13.60829     +0.25619992     +0.07544090
P   6.48
From 8854 observations 2004 Sept. 20-2025 Jan. 25, mean residual 0".7.
     Nongravitational parameters A1 = +0.11, A2 = +0.0236.

・ 星図

・ 光度変化

        H = 16.8  G = 0.15                        [    ,-270]  (              〜2023年 1月15日)
        m1 = 10.0 + 5 logΔ + 20.0 log r          [-270,   0]  (2023年 1月15日〜2023年10月12日)
        m1 = 10.0 + 5 logΔ + 15.0 log r(t - 10)  [   0, 165]  (2023年10月12日〜2024年 3月25日)
        m1 = 11.5 + 5 logΔ + 10.0 log r          [ 165,    ]  (2024年 3月25日〜              )

---------------------------------------------------------------------

軌道要素はM.P.E.C. 2025-C143に掲載されたものです。
星図はステラナビゲータ Ver.10 (アストロアーツ) で作成したものです。
光度グラフはComet for Windowsで作成したものです。

---------------------------------------------------------------------

Copyright(C) Seiichi Yoshida (comet@aerith.net). All rights reserved.